STARLINK-1456, 45673

Orbit data source: Space-Track

STARLINK-1456, 45673 is a payload satellite owned by SpaceX/Seattle (US) in LEO that was launched on Thu, 04 Jun 2020 UTC via an FALCON 9 launch vehicle from the Air Force Eastern Test Range (AFETR). Payload-class satellites include a variety of spacecraft equipped with specific instruments for various scientific and technological missions. These include communications satellites like Starlink; space stations such as the ISS; scientific satellites like the Hubble; Earth observation satellites from companies like Planet Labs, Umbra, and HawkEye 360; GPS; miniature CubeSats for education and research; and military/defense satellites.

Loading next visibility...
Identifier
45673, 2020-035S
Orbit
LEO
Country
Flag of USUS
Related business
Manufacturer
SpaceX/Seattle
Mission
Partially operational Commercial Communications
Bus & Motor
STARLINK, Unknown motor
Mass
260 kg wet, ~248 kg dry
Launch date (UTC)
2020-06-04 (6 years ago)
Launch vehicle
FALCON 9
Launch site
Air Force Eastern Test Range (AFETR)
Object type
Payload
Rocket body
Debris
Shape & HBR
Box + 1 Pan, 10.1 m
Radar Cross Section
13.562 m², Large (>1 m²)

Expand to show TLE details & history
Last TLE update: 12 hours ago

TLE from 12 hours ago
0 STARLINK-1456
1 45673U 20035S   26169.59853198  .00044588  00000-0  42001-3 0  9996
2 45673  53.0426 275.6067 0002371 200.3966 159.6955 15.66654677334765
Epoch: 2026-06-18T14:21Z
TLE epoch observation values (Epoch: 2026-06-18T14:21:53.163Z)
Latitude
0.00002°
Longitude
153.29565°
Altitude
370.885 km
Speed
7.687 km/s
True Right ascension
18h 22m 25s
True Declination
0° 00' 00"
Sunlit
Object was in full shadow at epoch
Visualization orbit readout
Latitude
Unknown
Longitude
Unknown
Altitude
Unknown
Speed
Unknown
Apparent Right ascension
Unknown
Apparent Declination
Unknown
Sunlit
N/A
Visualization observer readout
Local Sidereal Time
13:11:41
Azimuth
Unknown
Elevation
Unknown
Doppler factor
Unknown
Orbital elements
Apogee altitude
370.363 km
Perigee altitude
367.164 km
Semi-major axis
6,746.901 km
Eccentricity
0.00024
Inclination
53.0426°
RAAN
275.6067°
Arg. of periapsis
200.3966°
True anomaly
159.70493°
Mean anomaly
159.6955°
Eccentric anomaly
159.70021°
Mean motion
3.9164 °/min
Orbital period
91.92 mins
BSTAR
0.00042001
Loading maneuver chart data...
Computing Atmospheric mass density...

Documentation

Showing up to 5 results
|